Epoch 2000 Jan. 17.0 TT = JDT 2451560.5
T 2000 Feb. 5.16819 TT                                  MPC
q   0.0477861            (2000.0)            P               Q
n   0.17068404     Peri.   23.00778     -0.20067733     -0.88615942
a   3.2186526      Node    80.69749     +0.82010865     -0.38516850
e   0.9851534      Incl.   25.03921     +0.53586418     +0.25761735
P   5.77

Epoch 2005 Nov. 6.0 TT = JDT 2453680.5
T 2005 Nov. 17.27636 TT                                 MPC
q   0.0481354            (2000.0)            P               Q
n   0.17042496     Peri.   23.18018     -0.20025215     -0.88774092
a   3.2219138      Node    80.48244     +0.82018332     -0.38331432
e   0.9850600      Incl.   24.85297     +0.53590894     +0.25492388
P   5.78
Residuals in seconds of arc
K0025  249  2.1-  1.8- Y  K0025  249  5.3+  1.8- Y  K05BG  249  6.4+  2.3+ Y
K0025  249  3.6-  8.6- Y  K0025  249  0.6+  1.1- Y  K05BG  249  5.9+  2.0+ Y
K0025  249  3.2-  1.4- Y  K0025  249  0.5+  3.2- Y  K05BG  249  5.0-  4.6- Y
K0025  249  3.1-  5.9- Y  K0025  249  4.6+  4.2- Y  K05BG  249  5.1+  1.4- Y
K0025  249  0.0   5.8- Y  K0025  249  3.8+  2.7- Y  K05BG  249  1.6+  0.7+ Y
K0025  249  4.1- 10.0- Y  K0025  249  1.8+  2.2- Y  K05BG  249  0.5+  7.2- Y
K0025  249  0.5+  8.0- Y  K0025  249  0.5+  1.7- Y  K05BG  249 23.0-  6.2- Y
K0025  249  3.4-  4.5- Y  K0025  249  5.2+  3.0- Y  K05BG  249  6.9-  4.0- Y
K0025  249  3.7-  7.1- Y  K0025  249  4.3+  3.2- Y  K05BG  249  7.7- 17.0- Y
K0025  249  0.9-  5.6- Y  K0025  249  6.2+  2.1- Y  K05BG  249  6.7-  6.0+ Y
K0025  249  3.5-  7.0- Y  K0025  249  6.7+  0.8- Y  K05BG  249  6.4- 16.5+ Y
K0025  249  3.0-  6.0- Y  K0025  249  0.3+  1.5- Y  K05BG  249  2.0+  2.8+ Y
K0025  249  2.3-  6.8- Y  K0025  249  3.5+  4.0- Y  K05BG  249  7.6+ 13.6+ Y
K0025  249  3.1-  6.4- Y  K0025  249  2.9+  3.7- Y  K05BG  249  5.5+ 16.1- Y
K0025  249  0.6-  6.4- Y  K0025  249  2.0+  1.8- Y  K05BG  249  5.4+ 17.5+ Y
K0025  249  2.4-  5.4- Y  K0025  249  3.5+  1.8- Y  K05BG  249  7.6-  4.1- Y
K0025  249  2.3-  6.5- Y  K0025  249  2.7+  1.5- Y  K05BG  249  0.6+  1.1+ Y
K0025  249  3.2-  8.3- Y  K0025  249  1.5+  3.8- Y  K05BH  249  4.6+  2.7+ Y
K0025  249  0.9-  7.5- Y  K0025  249  2.0+  1.9+ Y  K05BH  249 11.8+ 16.7- Y
K0025  249  3.2-  8.9- Y  K0025  249  3.6+  1.7- Y  K05BH  249  1.0- 10.4+ Y
K0025  249  3.9-  4.1- Y  K0025  249  7.9+  3.7+ Y  K05BH  249  8.5+  0.4- Y
K0025  249  1.5-  6.1- Y  K0025  249  0.3+  2.1- Y  K05BH  249  7.6- 10.3- Y
K0025  249  1.8-  6.7- Y  K0025  249  5.7+  0.1+ Y  K05BH  249  2.4+ 14.9- Y
K0025  249  3.2+  3.1- Y  K0025  249  2.8-  0.2- Y  K05BH  249  1.6+ 10.1- Y
K0025  249  2.6+  4.6- Y  K0025  249  0.6-  1.3+ Y  K05BH  249 12.7+ 11.6+ Y
K0025  249  4.0+  1.7- Y  K0025  249  0.7+  0.8+ Y  K05BH  249  7.0- 14.6+ Y
K0025  249  0.0   2.2- Y  K05BG  249  0.6-  6.0+ Y  K05BH  249  3.6+ 21.1+ Y
K0025  249  5.7+  3.9- Y  K05BG  249 14.5+  5.6+ Y

Brian G. Marsden             (C) Copyright 2005 MPC           M.P.E.C. 2005-W07

Read MPEC 2005-W06 Read MPEC 2005-W08


MPEC number:

Enter an MPEC number in one of the following forms:

  • 1997-B01 (the full form)
  • J97B01 (the packed version of the full form)
  • B01 (the abbreviated form)

